TimeCST,TemperatureF,Dew PointF,Humidity,Sea Level PressureIn,VisibilityMPH,Wind Direction,Wind SpeedMPH,Gust SpeedMPH,PrecipitationIn,Events,Conditions,WindDirDegrees,DateUTC
12:55 AM,78.8,73.4,83,29.91,6.0,Calm,Calm,-,N/A,Rain,Light Rain,0,2013-01-22 06:55:00
1:55 AM,78.8,73.4,83,29.91,-9999.0,Calm,Calm,-,N/A,,Mostly Cloudy,0,2013-01-22 07:55:00
1:56 AM,78.8,73.4,83,29.84,8.0,Calm,Calm,-,N/A,,Overcast,0,2013-01-22 07:56:00
2:50 AM,76,73,88,29.90,6,NE,2.2,,,,Overcast,50,2013-01-22 08:50:00
3:45 AM,77.0,73.4,89,29.89,8.0,Calm,Calm,-,N/A,,Overcast,0,2013-01-22 09:45:00
4:56 AM,77.0,73.4,89,29.90,8.0,Calm,Calm,-,N/A,,Overcast,0,2013-01-22 10:56:00
5:42 AM,77.0,73.4,89,29.94,8.0,Calm,Calm,-,N/A,,Overcast,0,2013-01-22 11:42:00
5:50 AM,75,73,90,29.90,6,ENE,2.2,,,,Overcast,60,2013-01-22 11:50:00
6:45 AM,77.0,73.4,89,29.91,8.0,Calm,Calm,-,N/A,,Mostly Cloudy,0,2013-01-22 12:45:00
7:48 AM,75.2,68.0,78,29.93,8.0,Calm,Calm,-,N/A,,Mostly Cloudy,0,2013-01-22 13:48:00
8:47 AM,77.0,69.8,78,29.92,8.0,Calm,Calm,-,N/A,,Mostly Cloudy,0,2013-01-22 14:47:00
8:50 AM,76,72,84,29.96,12,West,2.2,,,,Partly Cloudy,270,2013-01-22 14:50:00
9:54 AM,80.6,71.6,74,29.97,8.0,Calm,Calm,-,N/A,,Mostly Cloudy,0,2013-01-22 15:54:00
10:43 AM,84.2,73.4,70,29.98,8.0,Calm,Calm,-,N/A,,Mostly Cloudy,0,2013-01-22 16:43:00
11:43 AM,86.0,73.4,66,29.95,8.0,WSW,6.9,-,N/A,,Scattered Clouds,240,2013-01-22 17:43:00
11:50 AM,88,69,45,29.94,12,SW,4.5,,,,Scattered Clouds,220,2013-01-22 17:50:00
12:42 PM,87.8,75.2,66,29.95,8.0,WSW,6.9,-,N/A,,Partly Cloudy,240,2013-01-22 18:42:00
1:41 PM,87.8,75.2,66,29.92,8.0,WSW,5.8,-,N/A,,Scattered Clouds,240,2013-01-22 19:41:00
2:43 PM,87.8,69.8,55,29.93,8.0,WSW,9.2,-,N/A,,Clear,240,2013-01-22 20:43:00
2:50 PM,87,72,54,29.88,12,East,6.7,,,,Scattered Clouds,90,2013-01-22 20:50:00
3:42 PM,89.6,71.6,55,29.89,8.0,WSW,9.2,-,N/A,,Clear,240,2013-01-22 21:42:00
4:43 PM,87.8,73.4,62,29.88,8.0,WSW,9.2,-,N/A,,Clear,250,2013-01-22 22:43:00
5:43 PM,86.0,77.0,74,29.86,8.0,West,9.2,-,N/A,,Clear,260,2013-01-22 23:43:00
5:50 PM,84,74,66,29.90,12,WSW,6.7,,,,Scattered Clouds,250,2013-01-22 23:50:00
6:43 PM,84.2,75.2,74,29.89,8.0,Calm,Calm,-,N/A,,Clear,0,2013-01-23 00:43:00
7:45 PM,82.4,75.2,79,29.90,8.0,Calm,Calm,-,N/A,,Clear,0,2013-01-23 01:45:00
8:43 PM,80.6,75.2,84,29.87,8.0,Calm,Calm,-,N/A,,Clear,0,2013-01-23 02:43:00
8:45 PM,78,75,86,29.94,6,SW,4.5,,,,,230,2013-01-23 02:45:00
9:42 PM,80.6,75.2,84,29.95,8.0,Calm,Calm,-,N/A,,Clear,0,2013-01-23 03:42:00
10:42 PM,78.8,73.4,83,29.97,8.0,Calm,Calm,-,N/A,,Clear,0,2013-01-23 04:42:00
11:42 PM,77.0,71.6,83,29.99,8.0,Calm,Calm,-,N/A,,Clear,0,2013-01-23 05:42:00
11:50 PM,75,73,92,29.98,6,SW,2.2,,,,Partly Cloudy,220,2013-01-23 05:50:00